Location: Staunton
(38.1490°N, 79.0720°W)
Time: 17:46:08
(UTC-04:00)

ISS - Pass Details

Date: 25 March 2017
Orbit: 399 x 409 km, 51.6° (Epoch: 26 March)

Event Time Altitude Azimuth Distance (km) Brightness Sun altitude
Rises 20:30:41 0° 191° (SSW) 2,291 0.0 -12.0°
Reaches altitude 10° 20:33:20 10° 168° (SSE) 1,440 -1.3 -12.5°
Enters shadow 20:34:29 14° 148° (SSE) 1,215 -1.8 -12.7°
